FW4737 Weather Reports


time (UTC)temp
F
wind
direction
speed
knots
gust
knots
rain 1hr
in
rain 24hr
in
rain mn
in
humidity
%
barometer
mb
20260510190316 82 310 2.6 3.5 0.00 0.00 0.00 68 1014.6
20260510185813 81 278 0.9 3.5 0.00 0.00 0.00 68 1015.2
20260510185307 81 252 3.5 5.2 0.00 0.00 0.00 68 1014.8
20260510184803 81 312 0.0 1.7 0.00 0.00 0.00 69 1014.8
20260510184259 82 193 0.0 2.6 0.00 0.00 0.00 70 1014.7
20260510183755 81 214 0.0 2.6 0.00 0.00 0.00 69 1014.9
20260510183252 80 297 2.6 2.6 0.00 0.00 0.00 71 1014.9
20260510183007 79 172 1.7 2.6 0.00 0.00 0.00 72 1014.9
20260510182243 79 302 1.7 2.6 0.00 0.00 0.00 75 1015.0
20260510181739 81 36 3.5 3.5 0.00 0.00 0.00 72 1015.0
20260510181234 80 188 0.0 2.6 0.00 0.00 0.00 74 1015.1
20260510180731 80 181 0.9 2.6 0.00 0.00 0.00 72 1015.2
20260510180226 81 268 2.6 5.2 0.00 0.00 0.00 71 1015.3
20260510175940 80 113 2.6 3.5 0.00 0.00 0.00 70 1015.4
20260510175218 79 335 0.9 3.5 0.00 0.00 0.00 76 1015.6
20260510174713 79 13 2.6 3.5 0.00 0.00 0.00 75 1015.7
20260510174209 78 188 0.9 1.7 0.00 0.00 0.00 79 1015.8
20260510173706 78 250 0.9 3.5 0.00 0.00 0.00 77 1015.9
20260510173202 79 333 1.7 6.1 0.00 0.00 0.00 78 1015.8
20260510172657 78 133 0.9 2.6 0.00 0.00 0.00 78 1015.8
20260510172415 76 141 0.0 0.9 0.00 0.00 0.00 82 1015.8
20260510171650 77 18 2.6 3.5 0.00 0.00 0.00 79 1016.0
20260510171145 77 250 1.7 1.7 0.00 0.00 0.00 80 1016.2
20260510170642 77 332 1.7 2.6 0.00 0.00 0.00 79 1016.2
20260510170137 78 38 0.9 2.6 0.00 0.00 0.00 78 1015.9
20260510165855 78 236 0.9 2.6 0.00 0.00 0.00 75 1015.8
20260510165130 78 319 0.9 5.2 0.00 0.00 0.00 78 1016.2
20260510164626 76 238 1.7 1.7 0.00 0.00 0.00 78 1016.2
20260510164121 77 36 1.7 1.7 0.00 0.00 0.00 79 1016.0
20260510163618 78 15 1.7 2.6 0.00 0.00 0.00 76 1016.1
20260510163115 78 276 0.0 1.7 0.00 0.00 0.00 78 1016.2
20260510162609 77 157 0.0 1.7 0.00 0.00 0.00 80 1016.3
20260510162105 75 125 0.0 0.0 0.00 0.00 0.00 83 1016.2
20260510161810 76 224 0.0 2.6 0.00 0.00 0.00 82 1016.2
20260510161303 77 273 1.7 2.6 0.00 0.00 0.00 79 1016.1
20260510160540 76 197 1.7 1.7 0.00 0.00 0.00 79 1016.1
20260510160032 76 290 1.7 2.6 0.00 0.00 0.00 80 1016.4
20260510155449 77 180 0.0 0.9 0.00 0.00 0.00 80 1016.1
20260510154909 76 204 0.9 2.6 0.00 0.00 0.00 79 1016.2
20260510154557 74 269 2.6 2.6 0.00 0.00 0.00 83 1016.3
20260510153836 74 228 0.9 2.6 0.00 0.00 0.00 84 1016.2
20260510153321 75 298 3.5 3.5 0.00 0.00 0.00 82 1016.4
20260510152817 76 260 5.2 6.1 0.00 0.00 0.00 81 1016.1
20260510152313 74 191 0.0 1.7 0.00 0.00 0.00 83 1016.1
20260510151809 73 189 0.9 0.9 0.00 0.00 0.00 85 1016.1
20260510151306 72 231 1.7 2.6 0.00 0.00 0.00 86 1016.1
20260510150802 72 225 0.0 0.9 0.00 0.00 0.00 86 1016.1
20260510150258 72 261 0.0 1.7 0.00 0.00 0.00 87 1016.3
20260510145754 72 216 1.7 3.5 0.00 0.00 0.00 87 1016.3
20260510145251 73 283 1.7 2.6 0.00 0.00 0.00 87 1016.2
20260510145231 73 164 0.0 0.0 0.00 0.00 0.00 87 1016.0
20260510144242 72 198 0.0 0.0 0.00 0.00 0.00 85 1016.4
20260510143737 73 184 0.0 0.9 0.00 0.00 0.00 86 1016.6
20260510143234 72 134 0.0 0.0 0.00 0.00 0.00 87 1016.2
20260510142730 72 186 0.0 1.7 0.00 0.00 0.00 88 1016.4
20260510142224 72 203 0.9 3.5 0.00 0.00 0.00 88 1016.2
20260510141939 71 196 0.0 0.9 0.00 0.00 0.00 87 1016.2
20260510141215 71 85 0.0 1.7 0.00 0.00 0.00 88 1016.2
20260510140933 71 189 0.0 0.0 0.00 0.00 0.00 90 1016.2
20260510140207 70 208 0.0 0.9 0.00 0.00 0.00 91 1016.4
20260510135702 70 208 0.0 1.7 0.00 0.00 0.00 92 1016.3
20260510135157 70 190 0.0 0.0 0.00 0.00 0.00 92 1016.3
20260510134654 70 208 0.0 1.7 0.00 0.00 0.00 92 1016.1
20260510134150 70 195 0.0 0.9 0.00 0.00 0.00 93 1016.3
20260510133647 69 166 0.0 0.0 0.00 0.00 0.00 95 1016.2
20260510133140 69 136 0.0 0.0 0.00 0.00 0.00 97 1016.0
20260510132637 68 154 0.0 1.7 0.00 0.00 0.00 97 1016.2
20260510132133 68 107 0.0 1.7 0.00 0.00 0.00 99 1016.2
20260510131628 68 188 0.0 0.0 0.00 0.00 0.00 99 1016.1
20260510131122 67 86 0.0 0.0 0.00 0.00 0.00 99 1015.9
20260510130618 68 156 0.0 0.0 0.00 0.00 0.00 99 1016.0
20260510130336 67 106 0.0 0.0 0.00 0.00 0.00 99 1015.8
20260510125610 67 164 0.0 0.0 0.00 0.00 0.00 99 1015.9
20260510125106 67 120 0.0 0.0 0.00 0.00 0.00 99 1015.7
20260510124600 67 134 0.0 0.0 0.00 0.00 0.00 99 1015.7
20260510124050 66 149 0.0 0.0 0.00 0.00 0.00 99 1015.7
20260510123529 66 108 0.0 0.0 0.00 0.00 0.00 99 1015.6
20260510122949 66 143 0.0 0.0 0.00 0.00 0.00 99 1015.7
20260510122416 66 124 0.0 0.0 0.00 0.00 0.00 99 1015.7
20260510122116 66 160 0.0 0.0 0.00 0.00 0.00 99 1015.5
20260510121354 66 159 0.0 0.0 0.00 0.00 0.00 99 1015.4
20260510121046 65 158 0.0 0.0 0.00 0.00 0.00 99 1015.2
20260510120319 65 162 0.0 0.0 0.00 0.00 0.00 99 1015.2
20260510120036 65 162 0.0 0.0 0.00 0.00 0.00 99 1014.9
20260510115312 65 174 0.0 0.0 0.00 0.00 0.00 99 1015.3
20260510114807 65 173 0.0 0.0 0.00 0.00 0.00 99 1014.9
20260510114303 64 173 0.0 0.0 0.00 0.00 0.00 99 1014.8
20260510113759 64 174 0.0 0.0 0.00 0.00 0.00 99 1014.9
20260510113256 64 174 0.0 0.0 0.00 0.00 0.00 99 1014.8
20260510113013 64 174 0.0 0.0 0.00 0.00 0.00 99 1014.8
20260510112248 64 174 0.0 0.0 0.00 0.00 0.00 99 1014.6
20260510111743 63 174 0.0 0.0 0.00 0.00 0.00 99 1014.6
20260510111240 63 174 0.0 0.0 0.00 0.00 0.00 99 1014.3
20260510110735 63 174 0.0 0.0 0.00 0.00 0.00 99 1014.4
20260510110231 63 189 0.0 0.0 0.00 0.00 0.00 99 1014.3
20260510105727 64 189 0.0 0.0 0.00 0.00 0.00 99 1014.1
20260510105223 64 187 0.0 0.0 0.00 0.00 0.00 99 1014.2
20260510104719 63 187 0.0 0.0 0.00 0.00 0.00 99 1014.0
20260510104215 64 201 0.0 0.0 0.00 0.00 0.00 99 1013.9
20260510103711 63 197 0.0 0.0 0.00 0.00 0.00 99 1013.9
20260510103206 64 136 0.0 0.0 0.00 0.00 0.00 99 1013.9
20260510102703 64 125 0.0 0.0 0.00 0.00 0.00 99 1013.7
20260510102158 63 167 0.0 0.0 0.00 0.00 0.00 99 1013.4
20260510101654 63 168 0.0 0.0 0.00 0.00 0.00 99 1013.5
20260510101151 63 168 0.0 0.0 0.00 0.00 0.00 99 1013.5
20260510100646 63 167 0.0 0.0 0.00 0.00 0.00 99 1013.5
20260510100143 63 166 0.0 0.0 0.00 0.00 0.00 99 1013.4
20260510095900 63 167 0.0 0.0 0.00 0.00 0.00 99 1013.6
20260510095133 63 136 0.0 0.0 0.00 0.00 0.00 99 1013.6
20260510094629 63 126 0.0 0.0 0.00 0.00 0.00 99 1013.5
20260510094126 63 144 0.0 0.0 0.00 0.00 0.00 99 1013.3
20260510093622 63 173 0.0 0.0 0.00 0.00 0.00 99 1013.4
20260510093118 63 173 0.0 0.0 0.00 0.00 0.00 99 1013.4
20260510092614 64 139 0.0 0.0 0.00 0.00 0.00 99 1013.2
20260510092109 64 139 0.0 0.0 0.00 0.00 0.00 99 1013.2
20260510091606 64 138 0.0 0.0 0.00 0.00 0.00 99 1013.1
20260510091101 64 145 0.0 0.0 0.00 0.00 0.00 99 1013.3
20260510090557 64 135 0.0 0.0 0.00 0.00 0.00 99 1013.1
20260510090047 64 133 0.0 0.0 0.00 0.00 0.00 99 1013.1
20260510090024 64 134 0.0 0.0 0.00 0.00 0.00 99 1012.9
20260510085024 64 120 0.0 0.0 0.00 0.00 0.00 99 1013.0
20260510084509 64 144 0.0 0.0 0.00 0.00 0.00 99 1012.9
20260510084000 64 133 0.0 0.0 0.00 0.00 0.00 99 1012.9
20260510083705 64 138 0.0 0.0 0.00 0.00 0.00 99 1012.8
20260510082942 64 93 0.0 0.0 0.00 0.00 0.00 99 1012.8
20260510082416 64 154 0.0 0.0 0.00 0.00 0.00 99 1012.8
20260510081852 64 154 0.0 0.0 0.00 0.00 0.00 99 1012.8
20260510081325 64 173 0.0 0.0 0.00 0.00 0.00 99 1012.9
20260510080821 63 173 0.0 0.0 0.00 0.00 0.00 99 1012.8
20260510080537 63 173 0.0 0.0 0.00 0.00 0.00 99 1012.8
20260510075813 63 173 0.0 0.0 0.00 0.00 0.00 99 1012.6
20260510075309 63 173 0.0 0.0 0.00 0.00 0.00 99 1012.6
20260510075028 63 173 0.0 0.0 0.00 0.00 0.00 99 1012.7
20260510074302 64 144 0.0 0.0 0.00 0.00 0.00 99 1012.3
20260510073757 64 132 0.0 0.0 0.00 0.00 0.00 99 1012.2
20260510073254 64 153 0.0 0.0 0.00 0.00 0.00 99 1012.4
20260510072749 64 182 0.0 0.0 0.00 0.00 0.00 99 1012.3
20260510072245 64 182 0.0 0.0 0.00 0.00 0.00 99 1012.2
20260510071740 64 183 0.0 0.0 0.00 0.00 0.00 99 1012.2
20260510071237 64 182 0.0 0.0 0.00 0.00 0.00 99 1012.3
20260510070951 64 188 0.0 0.0 0.00 0.00 0.00 99 1012.2
20260510070448 64 123 0.0 0.0 0.00 0.00 0.00 99 1012.1
20260510065722 64 90 0.0 0.0 0.00 0.00 0.00 99 1011.8
20260510065219 63 125 0.0 0.0 0.00 0.00 0.00 99 1012.2
20260510064934 63 122 0.0 0.0 0.00 0.00 0.00 99 1012.1
20260510064211 63 109 0.0 0.0 0.00 0.00 0.00 99 1012.1
20260510063707 64 104 0.0 0.9 0.00 0.00 0.00 99 1012.2
20260510063202 63 58 0.0 0.0 0.00 0.00 0.00 99 1012.1
20260510062657 63 97 0.0 0.0 0.00 0.00 0.00 99 1012.3
20260510062153 63 121 0.0 0.0 0.00 0.00 0.00 99 1012.2
20260510061648 63 164 0.0 0.0 0.00 0.00 0.00 99 1012.3
20260510061144 63 66 0.0 0.0 0.00 0.00 0.00 99 1012.1
20260510060640 63 126 0.0 0.0 0.00 0.00 0.00 99 1012.3
20260510060136 64 103 0.0 0.0 0.00 0.00 0.00 99 1012.3
20260510055631 64 125 0.0 0.0 0.00 0.00 0.00 99 1012.5
20260510055126 64 297 0.0 0.0 0.00 0.00 0.00 99 1012.6
20260510054622 64 255 1.7 1.7 0.00 0.00 0.00 99 1012.2
20260510054118 64 132 0.0 0.9 0.00 0.00 0.00 99 1011.9
20260510053614 64 101 0.9 2.6 0.00 0.00 0.00 99 1011.8
20260510053110 64 132 1.7 1.7 0.00 0.00 0.00 99 1012.1
20260510052606 64 124 0.0 0.0 0.00 0.00 0.00 99 1012.3
20260510052100 65 128 0.0 0.0 0.00 0.00 0.00 99 1012.6
20260510051558 65 141 0.0 0.0 0.00 0.00 0.00 99 1012.8
20260510051315 65 159 0.0 0.0 0.00 0.00 0.00 99 1013.0
20260510050807 65 170 0.0 0.0 0.00 0.00 0.00 99 1012.9
20260510050016 65 169 0.0 0.0 0.00 0.00 0.00 99 1013.0
20260510045438 65 149 0.0 0.0 0.00 0.00 0.73 99 1012.9
20260510044934 65 149 0.0 0.0 0.00 0.00 0.73 99 1013.2
20260510044353 65 149 0.0 0.0 0.00 0.00 0.73 99 1013.0
20260510043823 65 119 0.0 0.0 0.00 0.00 0.73 99 1013.2
20260510043318 65 122 0.0 0.9 0.00 0.00 0.73 99 1013.1
20260510043035 65 116 0.0 0.0 0.00 0.00 0.73 99 1013.2
20260510042757 65 179 0.0 0.0 0.00 0.00 0.73 99 1013.1
20260510042029 65 168 0.0 0.0 0.00 0.00 0.73 99 1013.5
20260510041302 65 147 0.0 0.0 0.00 0.00 0.73 99 1013.2
20260510040759 65 162 0.0 0.0 0.00 0.00 0.73 99 1013.2
20260510040255 65 160 0.0 0.0 0.00 0.00 0.73 99 1013.1
20260510035750 65 152 0.0 0.0 0.00 0.00 0.73 99 1013.1
20260510035246 65 153 0.0 0.0 0.00 0.00 0.73 99 1013.1
20260510034742 65 153 0.0 0.0 0.00 0.00 0.73 99 1013.6
20260510034238 65 153 0.0 0.0 0.00 0.00 0.73 99 1013.5
20260510033734 65 141 0.0 0.0 0.00 0.00 0.73 99 1013.4
20260510033230 65 134 0.0 0.0 0.00 0.00 0.73 99 1013.2
20260510032725 65 142 0.0 0.0 0.00 0.00 0.73 99 1013.4
20260510032221 65 130 0.0 0.0 0.00 0.00 0.73 99 1013.6
20260510031717 65 130 0.0 0.0 0.00 0.00 0.73 99 1013.3
20260510031213 65 127 0.0 0.0 0.00 0.00 0.73 99 1013.5
20260510030709 65 72 0.0 1.7 0.00 0.00 0.73 99 1013.3
20260510030204 65 117 0.0 0.0 0.00 0.00 0.73 99 1013.3
20260510025700 65 108 0.0 0.0 0.00 0.00 0.73 99 1013.2
20260510025156 65 126 0.0 0.0 0.00 0.00 0.73 99 1012.9
20260510024651 65 112 0.0 1.7 0.00 0.00 0.73 99 1013.1
20260510024148 65 92 0.9 0.9 0.00 0.00 0.73 99 1012.8
20260510023902 65 21 0.0 0.0 0.00 0.00 0.73 99 1012.9
20260510023140 65 88 0.0 0.0 0.00 0.00 0.73 99 1012.5
20260510022635 65 101 0.0 0.0 0.00 0.00 0.73 99 1012.7
20260510022352 65 164 0.0 0.0 0.00 0.00 0.73 99 1012.6
20260510021628 65 164 0.0 0.0 0.00 0.00 0.73 99 1012.9
20260510021123 65 164 0.0 0.0 0.00 0.00 0.73 99 1012.9
20260510020615 65 164 0.0 0.0 0.00 0.00 0.73 99 1012.9
20260510020058 65 162 0.0 0.0 0.00 0.00 0.73 99 1012.6
20260510015550 65 153 0.0 0.0 0.07 0.00 0.73 99 1012.6
20260510015232 65 153 0.0 0.0 0.07 0.00 0.73 99 1012.6
20260510014725 65 153 0.0 0.0 0.00 0.00 0.72 99 1012.7
20260510013956 65 147 0.0 0.0 0.00 0.00 0.72 99 1012.6
20260510013443 65 138 0.0 0.0 0.00 0.00 0.72 99 1012.6
20260510012909 65 138 0.0 0.0 0.00 0.00 0.72 99 1013.0
20260510012543 66 135 0.0 0.0 0.00 0.00 0.72 99 1012.8
20260510011818 65 125 0.0 0.0 0.00 0.00 0.72 99 1012.8
20260510011314 66 138 0.0 0.0 0.00 0.00 0.72 99 1012.9
20260510011029 66 143 0.0 0.0 0.00 0.00 0.72 99 1012.9
20260510010307 66 177 0.0 0.0 0.00 0.00 0.72 99 1013.0
20260510005802 66 179 0.0 0.0 0.00 0.00 0.72 99 1012.8
20260510005258 66 197 0.0 0.0 0.00 0.00 0.72 99 1012.6
20260510005017 66 164 0.0 0.0 0.00 0.00 0.72 99 1012.3
20260510004510 66 140 0.0 0.0 0.00 0.00 0.72 98 1012.2
20260510004007 66 134 0.0 0.0 0.00 0.00 0.72 98 1012.2
20260510003242 66 137 0.0 0.0 0.00 0.00 0.72 98 1012.2
20260510002738 66 135 0.0 0.0 0.00 0.00 0.72 98 1012.0
20260510002234 66 124 0.0 0.0 0.00 0.00 0.72 98 1012.1
20260510001731 66 138 0.0 0.0 0.00 0.00 0.72 98 1012.2
20260510001227 66 133 0.0 0.0 0.00 0.00 0.72 98 1012.3
20260510000722 66 101 0.0 0.0 0.00 0.00 0.72 98 1012.4
20260510000437 67 144 0.0 0.0 0.00 0.00 0.72 98 1012.0
20260509235714 67 138 0.0 0.0 0.00 0.00 0.72 98 1012.1
20260509235210 67 167 0.0 0.0 0.00 0.00 0.72 98 1012.0
20260509234705 67 153 0.0 0.0 0.00 0.00 0.72 97 1011.6
20260509234424 67 158 0.0 0.0 0.00 0.00 0.72 98 1011.7
20260509233657 67 187 0.0 0.0 0.00 0.00 0.72 97 1011.8
20260509233154 67 149 0.0 0.0 0.00 0.00 0.72 97 1011.8
20260509232650 67 144 0.0 0.0 0.00 0.00 0.72 97 1012.1
20260509232146 67 145 0.0 0.0 0.00 0.00 0.72 97 1011.9
20260509231642 67 208 0.0 0.9 0.00 0.00 0.72 97 1012.0
20260509231138 67 139 0.0 0.0 0.05 0.00 0.72 97 1012.0
20260509230634 67 168 0.0 0.0 0.05 0.00 0.72 97 1011.8
20260509230351 67 174 0.0 0.0 0.00 0.00 0.71 96 1011.9
20260509225626 67 173 0.0 0.0 0.00 0.00 0.71 96 1012.0
20260509225120 67 176 0.0 0.0 0.00 0.00 0.71 96 1011.4
20260509224617 67 175 0.0 0.0 0.00 0.00 0.71 96 1011.5
20260509224113 67 174 0.0 0.0 0.00 0.00 0.71 95 1011.4
20260509223827 67 175 0.0 0.0 0.00 0.00 0.71 95 1011.5
20260509223324 67 195 0.9 1.7 0.00 0.00 0.71 95 1011.6
20260509222601 67 192 0.0 0.0 0.00 0.00 0.71 95 1011.8
20260509222056 68 177 0.0 0.0 0.00 0.00 0.71 95 1011.5
20260509221553 68 242 0.9 0.9 0.00 0.00 0.71 95 1011.3
20260509221304 68 251 1.7 2.6 0.00 0.00 0.71 95 1011.6
20260509220524 68 178 0.0 1.7 0.00 0.00 0.71 95 1011.4
20260509215945 68 208 0.0 0.0 0.07 0.00 0.71 95 1011.5
20260509215434 68 192 0.0 0.9 0.07 0.00 0.71 95 1011.7
20260509214930 68 200 0.0 0.9 0.00 0.00 0.70 95 1011.8
20260509214417 68 210 0.9 1.7 0.00 0.00 0.70 94 1011.7
20260509213916 68 199 0.0 0.9 0.00 0.00 0.70 94 1011.6
20260509213409 68 168 0.0 0.0 0.00 0.00 0.70 94 1011.4
20260509212848 68 193 0.0 0.0 0.05 0.00 0.70 93 1011.3
20260509212346 68 186 0.0 0.0 0.00 0.00 0.69 93 1011.4
20260509212103 68 211 0.0 0.0 0.00 0.00 0.69 94 1011.6
20260509211339 68 202 1.7 2.6 0.00 0.00 0.69 93 1011.5
20260509211044 69 206 1.7 1.7 0.07 0.00 0.69 94 1011.4
20260509210319 68 200 1.7 2.6 0.07 0.00 0.69 94 1011.4
20260509205817 69 194 0.0 0.9 0.00 0.00 0.68 94 1011.4
20260509205311 69 175 0.0 1.7 0.00 0.00 0.68 94 1011.3
20260509205028 68 164 0.0 0.0 0.05 0.00 0.68 94 1011.2
20260509204303 68 216 1.7 1.7 0.00 0.00 0.67 94 1011.1
20260509204017 69 171 0.0 0.0 0.00 0.00 0.67 95 1011.1
20260509203254 68 157 0.0 0.0 0.07 0.00 0.67 95 1010.9
20260509202751 68 141 0.0 0.9 0.07 0.00 0.67 95 1010.8
20260509202508 68 123 0.0 0.0 0.00 0.00 0.66 95 1010.7
20260509201743 68 162 0.0 0.0 0.05 0.00 0.66 96 1010.9
20260509201238 68 262 2.6 3.5 0.05 0.00 0.66 95 1011.0
20260509200734 68 146 1.7 1.7 0.00 0.00 0.65 94 1010.2
20260509200230 68 146 0.0 0.0 0.07 0.00 0.65 95 1010.2
20260509195727 68 101 0.0 0.9 0.07 0.00 0.65 95 1010.1
20260509195224 68 155 0.0 1.7 0.07 0.00 0.64 95 1010.6
20260509194718 68 177 0.9 3.5 0.07 0.00 0.64 96 1010.5
20260509194214 68 261 1.7 1.7 0.05 0.00 0.63 95 1010.1
20260509193709 68 59 0.0 1.7 0.05 0.00 0.63 95 1009.8
20260509193205 68 118 0.0 0.9 0.00 0.00 0.62 95 1009.9
20260509192702 68 135 0.0 0.9 0.07 0.00 0.62 94 1009.9
20260509192157 68 158 0.0 2.6 0.05 0.00 0.61 94 1009.7
20260509191653 68 11 0.9 2.6 0.05 0.00 0.61 94 1009.7
20260509191149 68 126 0.0 0.9 0.07 0.00 0.60 94 1009.9